Torna al catalogo

STARLINK-32234

AttivoComunicazioniVLEO
NORAD 60414·PAYLOAD·🇺🇸 United States

Lanciato Aug 10, 2024 da Cape Canaveral Space Force Station

Loading…

Prossimi Passaggi (prossime 24 ore)

TLE

AggiornatoSource: CelesTrak SupGP

Epoca: Sep 14, 2026, 21:30 UTC

1 60414C 24141S   26257.89631944  .00017006  00000+0  54690-3 0  2570
2 60414  53.1580  82.3915 0001022  92.7121  66.8578 15.31690918    18

Traccia STARLINK-32234 in tempo reale con AllMySat

Download on the App Store